Time,TemperatureF,DewpointF,PressureIn,WindDirection,WindDirectionDegrees,WindSpeedMPH,WindSpeedGustMPH,Humidity,HourlyPrecipIn,Conditions,Clouds,dailyrainin,SolarRadiationWatts/m^2,SoftwareType,DateUTC
2013-06-18 00:01:00,57.8,55.2,29.89,SW,226,0.0,0.0,91,0.00,,,0.00,0.00,VWS V14.00,2013-06-18 04:01:00,
2013-06-18 00:06:00,57.7,55.1,29.89,SW,226,0.0,0.0,91,0.00,,,0.00,0.00,VWS V14.00,2013-06-18 04:06:00,
2013-06-18 00:11:00,57.7,55.1,29.89,SW,226,0.0,1.0,91,0.00,,,0.00,0.00,VWS V14.00,2013-06-18 04:11:00,
2013-06-18 00:16:00,57.7,55.1,29.90,SW,226,0.0,1.0,91,0.00,,,0.00,0.00,VWS V14.00,2013-06-18 04:16:00,
2013-06-18 00:21:00,57.6,55.0,29.89,SW,225,0.0,1.0,91,0.00,,,0.00,0.00,VWS V14.00,2013-06-18 04:21:00,
2013-06-18 00:26:00,57.6,55.0,29.90,SW,226,0.0,0.0,91,0.00,,,0.00,0.00,VWS V14.00,2013-06-18 04:26:00,
2013-06-18 00:31:00,57.5,54.9,29.89,SW,226,0.0,0.0,91,0.00,,,0.00,0.00,VWS V14.00,2013-06-18 04:31:00,
2013-06-18 00:36:00,57.4,54.8,29.89,SW,226,0.0,0.0,91,0.00,,,0.00,0.00,VWS V14.00,2013-06-18 04:36:00,
2013-06-18 00:41:00,57.3,54.7,29.89,SW,226,0.0,0.0,91,0.00,,,0.00,0.00,VWS V14.00,2013-06-18 04:41:00,
2013-06-18 00:46:00,57.2,54.6,29.88,SW,226,0.0,0.0,91,0.00,,,0.00,0.00,VWS V14.00,2013-06-18 04:46:00,
2013-06-18 00:51:00,57.0,54.1,29.89,SW,226,0.0,0.0,90,0.00,,,0.00,0.00,VWS V14.00,2013-06-18 04:51:00,
2013-06-18 00:56:00,56.8,53.9,29.88,SW,226,0.0,1.0,90,0.00,,,0.00,0.00,VWS V14.00,2013-06-18 04:56:00,
2013-06-18 01:01:00,56.6,53.7,29.88,SW,226,2.0,3.0,90,0.00,,,0.00,0.00,VWS V14.00,2013-06-18 05:01:00,
2013-06-18 01:06:00,56.3,53.4,29.87,SW,226,1.0,1.0,90,0.00,,,0.00,0.00,VWS V14.00,2013-06-18 05:06:00,
2013-06-18 01:11:00,56.1,53.8,29.88,SW,218,0.0,0.0,92,0.00,,,0.00,0.00,VWS V14.00,2013-06-18 05:11:00,
2013-06-18 01:16:00,56.0,52.8,29.88,SW,218,0.0,1.0,89,0.00,,,0.00,0.00,VWS V14.00,2013-06-18 05:16:00,
2013-06-18 01:21:00,56.0,52.8,29.88,SW,218,0.0,0.0,89,0.00,,,0.00,0.00,VWS V14.00,2013-06-18 05:21:00,
2013-06-18 01:26:00,56.0,52.8,29.88,SW,219,0.0,0.0,89,0.00,,,0.00,0.00,VWS V14.00,2013-06-18 05:26:00,
2013-06-18 01:31:00,56.0,52.8,29.88,SW,219,0.0,0.0,89,0.00,,,0.00,0.00,VWS V14.00,2013-06-18 05:31:00,
2013-06-18 01:36:00,56.0,52.8,29.88,SW,219,0.0,1.0,89,0.00,,,0.00,0.00,VWS V14.00,2013-06-18 05:36:00,
2013-06-18 01:41:00,56.0,52.8,29.88,SW,218,0.0,0.0,89,0.00,,,0.00,0.00,VWS V14.00,2013-06-18 05:41:00,
2013-06-18 01:46:00,56.0,52.8,29.88,SW,219,0.0,0.0,89,0.00,,,0.00,0.00,VWS V14.00,2013-06-18 05:46:00,
2013-06-18 01:51:00,56.0,52.8,29.88,SW,219,0.0,0.0,89,0.00,,,0.00,0.00,VWS V14.00,2013-06-18 05:51:00,
2013-06-18 01:56:00,56.0,52.8,29.88,SW,219,0.0,0.0,89,0.00,,,0.00,0.00,VWS V14.00,2013-06-18 05:56:00,
2013-06-18 02:01:00,56.0,52.8,29.88,SW,219,0.0,0.0,89,0.00,,,0.00,0.00,VWS V14.00,2013-06-18 06:01:00,
2013-06-18 02:06:00,56.0,52.8,29.88,SW,219,0.0,0.0,89,0.00,,,0.00,0.00,VWS V14.00,2013-06-18 06:06:00,
2013-06-18 02:11:00,55.9,52.7,29.88,SW,218,0.0,0.0,89,0.00,,,0.00,0.00,VWS V14.00,2013-06-18 06:11:00,
2013-06-18 02:16:00,55.9,52.7,29.88,SW,219,0.0,0.0,89,0.00,,,0.00,0.00,VWS V14.00,2013-06-18 06:16:00,
2013-06-18 02:21:00,55.8,52.6,29.88,SW,219,0.0,0.0,89,0.00,,,0.00,0.00,VWS V14.00,2013-06-18 06:21:00,
2013-06-18 02:26:00,55.8,52.6,29.88,SW,219,0.0,0.0,89,0.00,,,0.00,0.00,VWS V14.00,2013-06-18 06:26:00,
2013-06-18 02:31:00,55.8,52.6,29.88,SW,219,0.0,0.0,89,0.00,,,0.00,0.00,VWS V14.00,2013-06-18 06:31:00,
2013-06-18 02:36:00,55.7,52.5,29.88,SW,219,0.0,0.0,89,0.00,,,0.00,0.00,VWS V14.00,2013-06-18 06:36:00,
2013-06-18 02:41:00,55.7,52.5,29.88,SW,219,0.0,0.0,89,0.00,,,0.00,0.00,VWS V14.00,2013-06-18 06:41:00,
2013-06-18 02:46:00,55.7,52.5,29.87,SW,219,0.0,0.0,89,0.00,,,0.00,0.00,VWS V14.00,2013-06-18 06:46:00,
2013-06-18 02:51:00,55.7,52.5,29.87,SW,219,0.0,1.0,89,0.00,,,0.00,0.00,VWS V14.00,2013-06-18 06:51:00,
2013-06-18 02:56:00,55.7,52.5,29.87,SW,219,0.0,0.0,89,0.00,,,0.00,0.00,VWS V14.00,2013-06-18 06:56:00,
2013-06-18 03:01:00,55.6,52.4,29.87,SW,219,0.0,0.0,89,0.00,,,0.00,0.00,VWS V14.00,2013-06-18 07:01:00,
2013-06-18 03:06:00,55.5,52.3,29.87,SW,219,0.0,0.0,89,0.00,,,0.00,0.00,VWS V14.00,2013-06-18 07:06:00,
2013-06-18 03:11:00,55.5,52.3,29.87,SW,219,0.0,0.0,89,0.00,,,0.00,0.00,VWS V14.00,2013-06-18 07:11:00,
2013-06-18 03:16:00,55.4,52.2,29.87,SW,219,0.0,0.0,89,0.00,,,0.00,0.00,VWS V14.00,2013-06-18 07:16:00,
2013-06-18 03:21:00,55.3,52.1,29.87,SW,219,0.0,0.0,89,0.00,,,0.00,0.00,VWS V14.00,2013-06-18 07:21:00,
2013-06-18 03:26:00,55.2,52.0,29.87,SW,218,0.0,0.0,89,0.00,,,0.00,0.00,VWS V14.00,2013-06-18 07:26:00,
2013-06-18 03:31:00,55.1,51.6,29.86,SW,218,0.0,0.0,88,0.00,,,0.00,0.00,VWS V14.00,2013-06-18 07:31:00,
2013-06-18 03:36:00,55.1,51.6,29.86,SW,218,0.0,0.0,88,0.00,,,0.00,0.00,VWS V14.00,2013-06-18 07:36:00,
2013-06-18 03:41:00,55.0,51.5,29.87,SW,218,0.0,0.0,88,0.00,,,0.00,0.00,VWS V14.00,2013-06-18 07:41:00,
2013-06-18 03:46:00,54.9,51.4,29.86,SW,218,0.0,0.0,88,0.00,,,0.00,0.00,VWS V14.00,2013-06-18 07:46:00,
2013-06-18 03:51:00,54.8,51.3,29.86,SW,219,0.0,1.0,88,0.00,,,0.00,0.00,VWS V14.00,2013-06-18 07:51:00,
2013-06-18 03:56:00,54.7,51.2,29.86,SW,219,0.0,0.0,88,0.00,,,0.00,0.00,VWS V14.00,2013-06-18 07:56:00,
2013-06-18 04:01:00,54.7,51.5,29.87,SW,219,0.0,0.0,89,0.00,,,0.00,0.00,VWS V14.00,2013-06-18 08:01:00,
2013-06-18 04:06:00,54.6,51.4,29.87,SW,219,0.0,0.0,89,0.00,,,0.00,0.00,VWS V14.00,2013-06-18 08:06:00,
2013-06-18 04:11:00,54.5,51.3,29.87,SW,219,0.0,0.0,89,0.00,,,0.00,0.00,VWS V14.00,2013-06-18 08:11:00,
2013-06-18 04:16:00,54.4,50.9,29.87,SW,219,0.0,0.0,88,0.00,,,0.00,0.00,VWS V14.00,2013-06-18 08:16:00,
2013-06-18 04:21:00,54.3,51.1,29.87,SW,219,0.0,0.0,89,0.00,,,0.00,0.00,VWS V14.00,2013-06-18 08:21:00,
2013-06-18 04:26:00,54.2,51.0,29.87,SW,219,0.0,0.0,89,0.00,,,0.00,0.00,VWS V14.00,2013-06-18 08:26:00,
2013-06-18 04:31:00,54.2,51.0,29.87,SW,219,0.0,0.0,89,0.00,,,0.00,0.00,VWS V14.00,2013-06-18 08:31:00,
2013-06-18 04:36:00,54.2,51.0,29.88,SW,219,0.0,0.0,89,0.00,,,0.00,0.00,VWS V14.00,2013-06-18 08:36:00,
2013-06-18 04:41:00,54.2,51.0,29.88,SW,219,0.0,0.0,89,0.00,,,0.00,0.00,VWS V14.00,2013-06-18 08:41:00,
2013-06-18 04:46:00,54.2,51.3,29.88,SW,219,0.0,0.0,90,0.00,,,0.00,0.00,VWS V14.00,2013-06-18 08:46:00,
2013-06-18 04:51:00,54.2,51.3,29.88,SW,219,0.0,0.0,90,0.00,,,0.00,0.00,VWS V14.00,2013-06-18 08:51:00,
2013-06-18 04:56:00,54.1,51.2,29.88,SW,219,0.0,0.0,90,0.00,,,0.00,0.00,VWS V14.00,2013-06-18 08:56:00,
2013-06-18 05:01:00,54.1,51.2,29.88,SW,219,0.0,0.0,90,0.00,,,0.00,0.00,VWS V14.00,2013-06-18 09:01:00,
2013-06-18 05:06:00,54.1,51.2,29.88,SW,219,0.0,0.0,90,0.00,,,0.00,0.00,VWS V14.00,2013-06-18 09:06:00,
2013-06-18 05:11:00,54.1,51.2,29.88,SW,219,0.0,0.0,90,0.00,,,0.00,0.00,VWS V14.00,2013-06-18 09:11:00,
2013-06-18 05:16:00,54.0,51.1,29.88,SW,219,0.0,0.0,90,0.00,,,0.00,5.00,VWS V14.00,2013-06-18 09:16:00,
2013-06-18 05:21:00,54.1,51.2,29.88,SW,219,0.0,0.0,90,0.00,,,0.00,7.00,VWS V14.00,2013-06-18 09:21:00,
2013-06-18 05:26:00,54.1,51.2,29.88,SW,219,0.0,0.0,90,0.00,,,0.00,11.00,VWS V14.00,2013-06-18 09:26:00,
2013-06-18 05:31:00,54.1,51.2,29.88,SW,219,0.0,0.0,90,0.00,,,0.00,12.00,VWS V14.00,2013-06-18 09:31:00,
2013-06-18 05:36:00,54.1,51.2,29.88,SW,219,0.0,0.0,90,0.00,,,0.00,18.00,VWS V14.00,2013-06-18 09:36:00,
2013-06-18 05:41:00,54.1,51.2,29.88,SW,219,0.0,0.0,90,0.00,,,0.00,21.00,VWS V14.00,2013-06-18 09:41:00,
2013-06-18 05:46:00,54.2,51.3,29.88,SW,219,0.0,0.0,90,0.00,,,0.00,25.00,VWS V14.00,2013-06-18 09:46:00,
2013-06-18 05:51:00,54.2,51.6,29.88,SW,219,0.0,0.0,91,0.00,,,0.00,35.00,VWS V14.00,2013-06-18 09:51:00,
2013-06-18 05:56:00,54.3,51.7,29.88,SW,219,0.0,0.0,91,0.00,,,0.00,51.00,VWS V14.00,2013-06-18 09:56:00,
2013-06-18 06:01:00,54.3,51.4,29.88,SW,219,0.0,0.0,90,0.00,,,0.00,69.00,VWS V14.00,2013-06-18 10:01:00,
2013-06-18 06:06:00,54.4,51.5,29.88,SW,219,0.0,0.0,90,0.00,,,0.00,79.00,VWS V14.00,2013-06-18 10:06:00,
2013-06-18 06:11:00,54.4,51.8,29.88,SW,219,0.0,0.0,91,0.00,,,0.00,53.00,VWS V14.00,2013-06-18 10:11:00,
2013-06-18 06:16:00,54.5,51.9,29.88,SW,219,0.0,0.0,91,0.00,,,0.00,42.00,VWS V14.00,2013-06-18 10:16:00,
2013-06-18 06:21:00,54.4,51.5,29.88,SW,219,0.0,0.0,90,0.00,,,0.00,67.00,VWS V14.00,2013-06-18 10:21:00,
2013-06-18 06:26:00,54.3,51.4,29.88,SW,219,0.0,1.0,90,0.00,,,0.00,63.00,VWS V14.00,2013-06-18 10:26:00,
2013-06-18 06:31:00,54.4,51.5,29.88,SW,218,0.0,0.0,90,0.00,,,0.00,70.00,VWS V14.00,2013-06-18 10:31:00,
2013-06-18 06:36:00,54.5,51.6,29.88,SW,219,0.0,0.0,90,0.00,,,0.00,63.00,VWS V14.00,2013-06-18 10:36:00,
2013-06-18 06:41:00,54.7,51.8,29.88,SW,219,0.0,0.0,90,0.00,,,0.00,109.00,VWS V14.00,2013-06-18 10:41:00,
2013-06-18 06:46:00,54.8,51.9,29.88,SW,219,0.0,0.0,90,0.00,,,0.00,130.00,VWS V14.00,2013-06-18 10:46:00,
2013-06-18 06:51:00,55.0,52.1,29.89,SW,219,0.0,1.0,90,0.00,,,0.00,130.00,VWS V14.00,2013-06-18 10:51:00,
2013-06-18 06:56:00,55.2,52.0,29.89,SW,218,0.0,1.0,89,0.00,,,0.00,162.00,VWS V14.00,2013-06-18 10:56:00,
2013-06-18 07:01:00,55.4,52.2,29.89,SW,219,0.0,1.0,89,0.00,,,0.00,118.00,VWS V14.00,2013-06-18 11:01:00,
2013-06-18 07:06:00,55.6,52.4,29.89,SW,219,0.0,0.0,89,0.00,,,0.00,113.00,VWS V14.00,2013-06-18 11:06:00,
2013-06-18 07:11:00,55.8,52.3,29.90,SW,219,0.0,1.0,88,0.00,,,0.00,151.00,VWS V14.00,2013-06-18 11:11:00,
2013-06-18 07:16:00,55.9,52.4,29.90,SW,219,0.0,0.0,88,0.00,,,0.00,88.00,VWS V14.00,2013-06-18 11:16:00,
2013-06-18 07:21:00,55.8,52.0,29.90,SW,219,0.0,0.0,87,0.00,,,0.00,51.00,VWS V14.00,2013-06-18 11:21:00,
2013-06-18 07:26:00,55.9,51.8,29.90,SW,219,0.0,0.0,86,0.00,,,0.00,47.00,VWS V14.00,2013-06-18 11:26:00,
2013-06-18 07:31:00,55.9,51.8,29.89,SW,219,0.0,1.0,86,0.00,,,0.00,53.00,VWS V14.00,2013-06-18 11:31:00,
2013-06-18 07:36:00,55.8,51.7,29.90,SW,218,0.0,0.0,86,0.01,,,0.01,83.00,VWS V14.00,2013-06-18 11:36:00,
2013-06-18 07:41:00,55.8,51.7,29.90,SW,219,0.0,2.0,86,0.01,,,0.01,134.00,VWS V14.00,2013-06-18 11:41:00,
2013-06-18 07:46:00,55.9,52.1,29.89,SW,219,0.0,0.0,87,0.01,,,0.01,171.00,VWS V14.00,2013-06-18 11:46:00,
2013-06-18 07:51:00,56.1,52.3,29.90,SW,219,0.0,0.0,87,0.01,,,0.01,176.00,VWS V14.00,2013-06-18 11:51:00,
2013-06-18 07:56:00,56.2,52.7,29.90,SW,219,0.0,0.0,88,0.01,,,0.01,165.00,VWS V14.00,2013-06-18 11:56:00,
2013-06-18 08:01:00,56.2,52.4,29.91,SW,219,0.0,0.0,87,0.01,,,0.01,109.00,VWS V14.00,2013-06-18 12:01:00,
2013-06-18 08:06:00,56.2,52.7,29.90,West,267,0.0,0.0,88,0.01,,,0.01,118.00,VWS V14.00,2013-06-18 12:06:00,
2013-06-18 08:11:00,56.1,52.6,29.90,SW,219,0.0,0.0,88,0.01,,,0.01,202.00,VWS V14.00,2013-06-18 12:11:00,
2013-06-18 08:16:00,56.1,52.6,29.90,SW,219,0.0,0.0,88,0.01,,,0.01,176.00,VWS V14.00,2013-06-18 12:16:00,
2013-06-18 08:21:00,56.1,52.6,29.91,SW,219,0.0,0.0,88,0.01,,,0.01,139.00,VWS V14.00,2013-06-18 12:21:00,
2013-06-18 08:26:00,56.0,52.5,29.91,SW,219,0.0,0.0,88,0.01,,,0.01,107.00,VWS V14.00,2013-06-18 12:26:00,
2013-06-18 08:31:00,56.1,52.6,29.91,SW,219,0.0,0.0,88,0.01,,,0.01,100.00,VWS V14.00,2013-06-18 12:31:00,
2013-06-18 08:36:00,56.1,52.6,29.91,SW,219,0.0,0.0,88,0.00,,,0.01,58.00,VWS V14.00,2013-06-18 12:36:00,
2013-06-18 08:41:00,56.1,52.6,29.92,SW,219,0.0,0.0,88,0.00,,,0.01,39.00,VWS V14.00,2013-06-18 12:41:00,
2013-06-18 08:46:00,56.1,52.6,29.92,SW,219,0.0,0.0,88,0.00,,,0.01,60.00,VWS V14.00,2013-06-18 12:46:00,
2013-06-18 08:51:00,56.0,52.5,29.92,SW,219,0.0,0.0,88,0.01,,,0.02,74.00,VWS V14.00,2013-06-18 12:51:00,
2013-06-18 08:56:00,56.0,52.5,29.92,SW,219,0.0,0.0,88,0.01,,,0.02,49.00,VWS V14.00,2013-06-18 12:56:00,
2013-06-18 09:01:00,55.9,52.4,29.93,SW,219,0.0,0.0,88,0.01,,,0.02,49.00,VWS V14.00,2013-06-18 13:01:00,
2013-06-18 09:06:00,55.9,52.4,29.93,SW,219,1.0,1.0,88,0.01,,,0.02,53.00,VWS V14.00,2013-06-18 13:06:00,
2013-06-18 09:11:00,55.7,52.2,29.93,SW,219,0.0,2.0,88,0.02,,,0.03,63.00,VWS V14.00,2013-06-18 13:11:00,
2013-06-18 09:16:00,55.5,51.7,29.93,SW,219,0.0,1.0,87,0.03,,,0.04,70.00,VWS V14.00,2013-06-18 13:16:00,
2013-06-18 09:21:00,55.5,52.0,29.93,SW,219,0.0,0.0,88,0.04,,,0.05,97.00,VWS V14.00,2013-06-18 13:21:00,
2013-06-18 09:26:00,55.5,52.0,29.94,SW,218,0.0,0.0,88,0.05,,,0.06,118.00,VWS V14.00,2013-06-18 13:26:00,
2013-06-18 09:31:00,55.5,52.0,29.94,SW,218,0.0,0.0,88,0.05,,,0.06,125.00,VWS V14.00,2013-06-18 13:31:00,
2013-06-18 09:36:00,55.6,52.1,29.94,SW,219,0.0,0.0,88,0.05,,,0.06,114.00,VWS V14.00,2013-06-18 13:36:00,
2013-06-18 09:41:00,55.6,52.1,29.94,SW,219,0.0,0.0,88,0.06,,,0.07,109.00,VWS V14.00,2013-06-18 13:41:00,
2013-06-18 09:46:00,55.6,52.1,29.94,SW,219,0.0,0.0,88,0.06,,,0.07,109.00,VWS V14.00,2013-06-18 13:46:00,
2013-06-18 09:51:00,55.4,51.9,29.93,SW,219,0.0,0.0,88,0.05,,,0.07,167.00,VWS V14.00,2013-06-18 13:51:00,
2013-06-18 09:56:00,55.5,52.3,29.93,SW,219,0.0,0.0,89,0.05,,,0.07,209.00,VWS V14.00,2013-06-18 13:56:00,
2013-06-18 10:01:00,55.7,52.8,29.94,SW,219,0.0,0.0,90,0.05,,,0.07,179.00,VWS V14.00,2013-06-18 14:01:00,
2013-06-18 10:06:00,55.8,52.9,29.94,SW,218,0.0,1.0,90,0.05,,,0.07,155.00,VWS V14.00,2013-06-18 14:06:00,
2013-06-18 10:11:00,55.8,52.9,29.94,SW,218,0.0,0.0,90,0.04,,,0.07,132.00,VWS V14.00,2013-06-18 14:11:00,
2013-06-18 10:16:00,55.8,52.9,29.93,SW,219,0.0,3.0,90,0.03,,,0.07,130.00,VWS V14.00,2013-06-18 14:16:00,
2013-06-18 10:21:00,55.7,52.8,29.93,SW,219,1.0,1.0,90,0.02,,,0.07,109.00,VWS V14.00,2013-06-18 14:21:00,
2013-06-18 10:26:00,55.7,52.8,29.92,SW,218,0.0,1.0,90,0.01,,,0.07,118.00,VWS V14.00,2013-06-18 14:26:00,
2013-06-18 10:31:00,55.8,52.9,29.93,SW,218,0.0,0.0,90,0.01,,,0.07,113.00,VWS V14.00,2013-06-18 14:31:00,
2013-06-18 10:36:00,55.7,52.8,29.94,SW,218,0.0,0.0,90,0.01,,,0.07,125.00,VWS V14.00,2013-06-18 14:36:00,
2013-06-18 10:41:00,55.6,52.7,29.94,SW,218,0.0,0.0,90,0.00,,,0.07,125.00,VWS V14.00,2013-06-18 14:41:00,
2013-06-18 10:46:00,55.6,52.7,29.94,SW,218,0.0,0.0,90,0.00,,,0.07,155.00,VWS V14.00,2013-06-18 14:46:00,
2013-06-18 10:51:00,55.6,52.7,29.93,SW,217,1.0,1.0,90,0.00,,,0.07,165.00,VWS V14.00,2013-06-18 14:51:00,
2013-06-18 10:56:00,55.6,52.7,29.92,SW,218,0.0,0.0,90,0.01,,,0.08,227.00,VWS V14.00,2013-06-18 14:56:00,
2013-06-18 11:01:00,55.7,53.1,29.93,SW,218,1.0,2.0,91,0.01,,,0.08,230.00,VWS V14.00,2013-06-18 15:01:00,
2013-06-18 11:06:00,55.9,53.3,29.94,SW,218,2.0,2.0,91,0.01,,,0.08,236.00,VWS V14.00,2013-06-18 15:06:00,
2013-06-18 11:11:00,56.0,53.4,29.93,SW,218,0.0,0.0,91,0.01,,,0.08,236.00,VWS V14.00,2013-06-18 15:11:00,
2013-06-18 11:16:00,56.1,53.5,29.94,SW,218,0.0,1.0,91,0.01,,,0.08,237.00,VWS V14.00,2013-06-18 15:16:00,
2013-06-18 11:21:00,56.3,53.7,29.93,SSW,213,2.0,3.0,91,0.01,,,0.08,285.00,VWS V14.00,2013-06-18 15:21:00,
2013-06-18 11:26:00,56.5,53.9,29.93,SSW,213,0.0,0.0,91,0.01,,,0.08,313.00,VWS V14.00,2013-06-18 15:26:00,
2013-06-18 11:31:00,56.4,53.5,29.93,WSW,256,1.0,1.0,90,0.01,,,0.08,381.00,VWS V14.00,2013-06-18 15:31:00,
2013-06-18 11:36:00,56.4,53.5,29.94,WSW,258,0.0,1.0,90,0.01,,,0.08,367.00,VWS V14.00,2013-06-18 15:36:00,
2013-06-18 11:41:00,56.5,53.6,29.94,West,259,0.0,1.0,90,0.01,,,0.08,461.00,VWS V14.00,2013-06-18 15:41:00,
2013-06-18 11:46:00,56.3,52.8,29.94,West,260,0.0,1.0,88,0.01,,,0.08,295.00,VWS V14.00,2013-06-18 15:46:00,
2013-06-18 11:51:00,56.4,52.9,29.94,West,259,0.0,1.0,88,0.01,,,0.08,464.00,VWS V14.00,2013-06-18 15:51:00,
2013-06-18 11:56:00,57.1,53.9,29.94,West,260,0.0,2.0,89,0.00,,,0.08,636.00,VWS V14.00,2013-06-18 15:56:00,
2013-06-18 12:01:00,57.7,53.9,29.94,West,259,0.0,0.0,87,0.00,,,0.08,455.00,VWS V14.00,2013-06-18 16:01:00,
2013-06-18 12:06:00,57.8,53.7,29.94,West,259,0.0,2.0,86,0.00,,,0.08,471.00,VWS V14.00,2013-06-18 16:06:00,
2013-06-18 12:11:00,58.1,53.6,29.94,WNW,302,0.0,0.0,85,0.00,,,0.08,439.00,VWS V14.00,2013-06-18 16:11:00,
2013-06-18 12:16:00,58.5,54.0,29.94,WNW,302,0.0,1.0,85,0.00,,,0.08,417.00,VWS V14.00,2013-06-18 16:16:00,
2013-06-18 12:21:00,58.7,53.9,29.94,WSW,249,1.0,3.0,84,0.00,,,0.08,262.00,VWS V14.00,2013-06-18 16:21:00,
2013-06-18 12:26:00,58.8,54.0,29.94,WSW,242,0.0,1.0,84,0.00,,,0.08,251.00,VWS V14.00,2013-06-18 16:26:00,
2013-06-18 12:31:00,58.7,53.9,29.94,SW,232,0.0,2.0,84,0.00,,,0.08,371.00,VWS V14.00,2013-06-18 16:31:00,
2013-06-18 12:36:00,58.6,54.1,29.94,SW,218,0.0,3.0,85,0.00,,,0.08,373.00,VWS V14.00,2013-06-18 16:36:00,
2013-06-18 12:41:00,58.6,53.8,29.94,SW,215,2.0,2.0,84,0.00,,,0.08,494.00,VWS V14.00,2013-06-18 16:41:00,
2013-06-18 12:46:00,58.8,54.3,29.94,SSW,212,1.0,2.0,85,0.00,,,0.08,650.00,VWS V14.00,2013-06-18 16:46:00,
2013-06-18 12:52:00,59.6,55.1,29.94,SSW,194,3.0,3.0,85,0.00,,,0.08,636.00,VWS V14.00,2013-06-18 16:52:00,
2013-06-18 12:57:00,59.9,55.1,29.94,SSW,196,0.0,3.0,84,0.00,,,0.08,577.00,VWS V14.00,2013-06-18 16:57:00,
2013-06-18 13:02:00,60.3,54.8,29.94,SSW,196,1.0,4.0,82,0.00,,,0.08,735.00,VWS V14.00,2013-06-18 17:02:00,
2013-06-18 13:07:00,60.9,54.3,29.94,South,180,0.0,2.0,79,0.00,,,0.08,691.00,VWS V14.00,2013-06-18 17:07:00,
2013-06-18 13:12:00,61.7,55.1,29.93,SE,144,0.0,2.0,79,0.00,,,0.08,837.00,VWS V14.00,2013-06-18 17:12:00,
2013-06-18 13:17:00,62.6,56.0,29.94,SSE,167,0.0,4.0,79,0.00,,,0.08,1287.00,VWS V14.00,2013-06-18 17:17:00,
2013-06-18 13:22:00,62.9,54.5,29.93,ESE,123,1.0,2.0,74,0.00,,,0.08,617.00,VWS V14.00,2013-06-18 17:22:00,
2013-06-18 13:27:00,63.0,53.5,29.93,SE,127,2.0,3.0,71,0.00,,,0.08,710.00,VWS V14.00,2013-06-18 17:27:00,
2013-06-18 13:32:00,63.5,55.1,29.93,SSE,165,4.0,4.0,74,0.00,,,0.08,490.00,VWS V14.00,2013-06-18 17:32:00,
2013-06-18 13:37:00,63.2,53.3,29.94,SSE,160,0.0,2.0,70,0.00,,,0.08,591.00,VWS V14.00,2013-06-18 17:37:00,
2013-06-18 13:42:00,63.1,52.8,29.93,ENE,59,1.0,4.0,69,0.00,,,0.08,508.00,VWS V14.00,2013-06-18 17:42:00,
2013-06-18 13:47:00,63.0,53.5,29.93,SSE,161,2.0,2.0,71,0.00,,,0.08,1042.00,VWS V14.00,2013-06-18 17:47:00,
2013-06-18 13:52:00,63.4,53.8,29.93,South,175,1.0,3.0,71,0.00,,,0.08,1042.00,VWS V14.00,2013-06-18 17:52:00,
2013-06-18 13:57:00,63.6,52.9,29.93,SSE,168,0.0,1.0,68,0.00,,,0.08,450.00,VWS V14.00,2013-06-18 17:57:00,
2013-06-18 14:02:00,64.0,53.6,29.93,SSE,151,2.0,4.0,69,0.00,,,0.08,353.00,VWS V14.00,2013-06-18 18:02:00,
2013-06-18 14:07:00,64.0,53.6,29.93,ESE,117,0.0,3.0,69,0.00,,,0.08,1181.00,VWS V14.00,2013-06-18 18:07:00,
2013-06-18 14:12:00,64.4,54.4,29.92,South,171,3.0,5.0,70,0.00,,,0.08,1143.00,VWS V14.00,2013-06-18 18:12:00,
2013-06-18 14:17:00,64.8,54.0,29.92,SSE,164,3.0,6.0,68,0.00,,,0.08,1174.00,VWS V14.00,2013-06-18 18:17:00,
2013-06-18 14:22:00,64.9,53.7,29.92,SSE,158,1.0,6.0,67,0.00,,,0.08,570.00,VWS V14.00,2013-06-18 18:22:00,
2013-06-18 14:27:00,64.7,53.5,29.92,SSE,148,1.0,3.0,67,0.00,,,0.08,570.00,VWS V14.00,2013-06-18 18:27:00,
2013-06-18 14:32:00,64.9,54.1,29.92,ESE,103,0.0,6.0,68,0.00,,,0.08,570.00,VWS V14.00,2013-06-18 18:32:00,
2013-06-18 14:37:00,65.1,53.9,29.92,South,176,0.0,5.0,67,0.00,,,0.08,1348.00,VWS V14.00,2013-06-18 18:37:00,
2013-06-18 14:42:00,65.2,54.0,29.92,South,176,1.0,5.0,67,0.00,,,0.08,547.00,VWS V14.00,2013-06-18 18:42:00,
2013-06-18 14:47:00,65.5,55.1,29.92,SSW,192,0.0,5.0,69,0.00,,,0.08,475.00,VWS V14.00,2013-06-18 18:47:00,
2013-06-18 14:52:00,65.8,54.5,29.91,SSE,160,3.0,5.0,67,0.00,,,0.08,1120.00,VWS V14.00,2013-06-18 18:52:00,
2013-06-18 14:57:00,65.6,53.5,29.91,SSE,162,1.0,2.0,65,0.00,,,0.08,450.00,VWS V14.00,2013-06-18 18:57:00,
2013-06-18 15:02:00,65.1,53.1,29.91,SSE,155,0.0,7.0,65,0.00,,,0.08,524.00,VWS V14.00,2013-06-18 19:02:00,
2013-06-18 15:07:00,65.0,52.5,29.91,ESE,114,1.0,7.0,64,0.00,,,0.08,362.00,VWS V14.00,2013-06-18 19:07:00,
2013-06-18 15:12:00,64.8,52.3,29.91,ESE,106,1.0,7.0,64,0.00,,,0.08,399.00,VWS V14.00,2013-06-18 19:12:00,
2013-06-18 15:17:00,65.0,53.8,29.91,SSE,165,4.0,6.0,67,0.00,,,0.08,998.00,VWS V14.00,2013-06-18 19:17:00,
2013-06-18 15:22:00,65.4,53.8,29.91,ESE,121,2.0,6.0,66,0.00,,,0.08,601.00,VWS V14.00,2013-06-18 19:22:00,
2013-06-18 15:27:00,65.8,53.7,29.91,SSE,165,3.0,6.0,65,0.00,,,0.08,1018.00,VWS V14.00,2013-06-18 19:27:00,
2013-06-18 15:32:00,65.8,53.3,29.91,SSE,165,0.0,2.0,64,0.00,,,0.08,260.00,VWS V14.00,2013-06-18 19:32:00,
2013-06-18 15:37:00,65.8,53.7,29.91,SSE,159,3.0,7.0,65,0.00,,,0.08,886.00,VWS V14.00,2013-06-18 19:37:00,
2013-06-18 15:42:00,65.9,53.0,29.91,ESE,121,5.0,5.0,63,0.00,,,0.08,824.00,VWS V14.00,2013-06-18 19:42:00,
2013-06-18 15:47:00,65.7,51.5,29.91,SSE,165,0.0,7.0,60,0.00,,,0.08,719.00,VWS V14.00,2013-06-18 19:47:00,
2013-06-18 15:52:00,65.4,51.6,29.91,ESE,117,1.0,7.0,61,0.00,,,0.08,791.00,VWS V14.00,2013-06-18 19:52:00,
2013-06-18 15:57:00,65.0,49.9,29.91,ESE,105,5.0,8.0,58,0.00,,,0.08,860.00,VWS V14.00,2013-06-18 19:57:00,
2013-06-18 16:02:00,64.8,49.7,29.91,SE,132,0.0,9.0,58,0.00,,,0.08,780.00,VWS V14.00,2013-06-18 20:02:00,
2013-06-18 16:07:00,65.0,50.3,29.91,ESE,109,3.0,8.0,59,0.00,,,0.08,796.00,VWS V14.00,2013-06-18 20:07:00,
2013-06-18 16:12:00,65.3,50.2,29.91,ESE,106,3.0,6.0,58,0.00,,,0.08,786.00,VWS V14.00,2013-06-18 20:12:00,
2013-06-18 16:17:00,65.1,48.5,29.90,South,169,0.0,6.0,55,0.00,,,0.08,548.00,VWS V14.00,2013-06-18 20:17:00,
2013-06-18 16:22:00,65.2,50.1,29.90,SSE,159,1.0,8.0,58,0.00,,,0.08,770.00,VWS V14.00,2013-06-18 20:22:00,
2013-06-18 16:27:00,65.1,48.5,29.90,South,173,0.0,7.0,55,0.00,,,0.08,751.00,VWS V14.00,2013-06-18 20:27:00,
2013-06-18 16:32:00,65.2,49.6,29.90,East,96,2.0,2.0,57,0.00,,,0.08,707.00,VWS V14.00,2013-06-18 20:32:00,
2013-06-18 16:37:00,65.4,48.8,29.90,East,95,0.0,3.0,55,0.00,,,0.08,701.00,VWS V14.00,2013-06-18 20:37:00,
2013-06-18 16:42:00,65.7,48.1,29.90,NE,50,1.0,6.0,53,0.00,,,0.08,687.00,VWS V14.00,2013-06-18 20:42:00,
2013-06-18 16:47:00,65.9,48.8,29.90,NE,44,4.0,7.0,54,0.00,,,0.08,680.00,VWS V14.00,2013-06-18 20:47:00,
2013-06-18 16:52:00,66.1,49.5,29.89,NE,42,4.0,6.0,55,0.00,,,0.08,673.00,VWS V14.00,2013-06-18 20:52:00,
2013-06-18 16:57:00,66.1,48.5,29.90,East,89,0.0,3.0,53,0.00,,,0.08,591.00,VWS V14.00,2013-06-18 20:57:00,
2013-06-18 17:02:00,65.9,48.8,29.90,ESE,108,7.0,7.0,54,0.00,,,0.08,659.00,VWS V14.00,2013-06-18 21:02:00,
2013-06-18 17:07:00,65.9,49.3,29.90,SE,133,3.0,5.0,55,0.00,,,0.08,626.00,VWS V14.00,2013-06-18 21:07:00,
2013-06-18 17:12:00,65.9,48.8,29.90,SE,134,0.0,5.0,54,0.00,,,0.08,621.00,VWS V14.00,2013-06-18 21:12:00,
2013-06-18 17:17:00,66.1,49.0,29.90,ESE,116,3.0,3.0,54,0.00,,,0.08,489.00,VWS V14.00,2013-06-18 21:17:00,
2013-06-18 17:22:00,66.2,49.1,29.89,ESE,105,1.0,3.0,54,0.00,,,0.08,594.00,VWS V14.00,2013-06-18 21:22:00,
2013-06-18 17:27:00,66.3,48.7,29.90,ENE,74,1.0,5.0,53,0.00,,,0.08,550.00,VWS V14.00,2013-06-18 21:27:00,
2013-06-18 17:32:00,66.3,47.1,29.90,NE,44,2.0,6.0,50,0.00,,,0.08,381.00,VWS V14.00,2013-06-18 21:32:00,
2013-06-18 17:37:00,66.1,48.5,29.90,ESE,114,7.0,7.0,53,0.00,,,0.08,323.00,VWS V14.00,2013-06-18 21:37:00,
2013-06-18 17:42:00,65.8,47.7,29.90,ESE,107,0.0,3.0,52,0.00,,,0.08,524.00,VWS V14.00,2013-06-18 21:42:00,
2013-06-18 17:47:00,65.7,47.1,29.90,ESE,111,0.0,3.0,51,0.00,,,0.08,603.00,VWS V14.00,2013-06-18 21:47:00,
2013-06-18 17:52:00,65.7,47.6,29.90,SE,131,0.0,2.0,52,0.00,,,0.08,366.00,VWS V14.00,2013-06-18 21:52:00,
2013-06-18 17:57:00,65.8,47.7,29.90,ESE,105,0.0,4.0,52,0.00,,,0.08,531.00,VWS V14.00,2013-06-18 21:57:00,
2013-06-18 18:02:00,65.8,47.2,29.90,East,88,2.0,2.0,51,0.00,,,0.08,483.00,VWS V14.00,2013-06-18 22:02:00,
2013-06-18 18:07:00,65.9,46.8,29.90,ENE,66,0.0,4.0,50,0.00,,,0.08,397.00,VWS V14.00,2013-06-18 22:07:00,
2013-06-18 18:12:00,65.9,46.8,29.89,ESE,105,0.0,3.0,50,0.00,,,0.08,390.00,VWS V14.00,2013-06-18 22:12:00,
2013-06-18 18:17:00,65.9,47.8,29.90,ESE,118,0.0,3.0,52,0.00,,,0.08,316.00,VWS V14.00,2013-06-18 22:17:00,
2013-06-18 18:22:00,65.9,46.8,29.90,ENE,69,0.0,5.0,50,0.00,,,0.08,309.00,VWS V14.00,2013-06-18 22:22:00,
2013-06-18 18:27:00,65.8,48.2,29.90,ENE,74,0.0,1.0,53,0.00,,,0.08,457.00,VWS V14.00,2013-06-18 22:27:00,
2013-06-18 18:32:00,65.7,48.1,29.90,ENE,77,0.0,2.0,53,0.00,,,0.08,329.00,VWS V14.00,2013-06-18 22:32:00,
2013-06-18 18:37:00,65.6,47.0,29.90,NE,34,1.0,3.0,51,0.00,,,0.08,141.00,VWS V14.00,2013-06-18 22:37:00,
2013-06-18 18:42:00,65.6,47.0,29.90,NE,49,0.0,4.0,51,0.00,,,0.08,234.00,VWS V14.00,2013-06-18 22:42:00,
2013-06-18 18:47:00,65.5,46.9,29.90,ENE,59,0.0,2.0,51,0.00,,,0.08,239.00,VWS V14.00,2013-06-18 22:47:00,
2013-06-18 18:52:00,65.5,46.9,29.90,NE,44,4.0,4.0,51,0.00,,,0.08,297.00,VWS V14.00,2013-06-18 22:52:00,
2013-06-18 18:57:00,65.4,47.8,29.91,ENE,59,1.0,4.0,53,0.00,,,0.08,272.00,VWS V14.00,2013-06-18 22:57:00,
2013-06-18 19:02:00,65.4,47.8,29.91,ENE,59,0.0,1.0,53,0.00,,,0.08,265.00,VWS V14.00,2013-06-18 23:02:00,
2013-06-18 19:07:00,65.4,48.3,29.91,ENE,59,0.0,1.0,54,0.00,,,0.08,248.00,VWS V14.00,2013-06-18 23:07:00,
2013-06-18 19:12:00,65.5,47.4,29.91,ENE,59,0.0,1.0,52,0.00,,,0.08,67.00,VWS V14.00,2013-06-18 23:12:00,
2013-06-18 19:17:00,65.5,48.4,29.91,ENE,59,0.0,0.0,54,0.00,,,0.08,148.00,VWS V14.00,2013-06-18 23:17:00,
2013-06-18 19:22:00,65.5,48.4,29.91,ENE,59,0.0,1.0,54,0.00,,,0.08,162.00,VWS V14.00,2013-06-18 23:22:00,
2013-06-18 19:28:00,65.5,49.4,29.91,ENE,59,0.0,0.0,56,0.00,,,0.08,153.00,VWS V14.00,2013-06-18 23:28:00,
2013-06-18 19:33:00,65.4,49.8,29.91,ENE,59,0.0,1.0,57,0.00,,,0.08,62.00,VWS V14.00,2013-06-18 23:33:00,
2013-06-18 19:38:00,65.3,51.1,29.91,ENE,59,0.0,0.0,60,0.00,,,0.08,141.00,VWS V14.00,2013-06-18 23:38:00,
2013-06-18 19:43:00,65.1,51.8,29.92,ENE,59,1.0,1.0,62,0.00,,,0.08,42.00,VWS V14.00,2013-06-18 23:43:00,
2013-06-18 19:48:00,64.8,51.5,29.92,ENE,59,0.0,1.0,62,0.00,,,0.08,42.00,VWS V14.00,2013-06-18 23:48:00,
2013-06-18 19:53:00,64.3,51.9,29.92,ENE,59,0.0,1.0,64,0.00,,,0.08,44.00,VWS V14.00,2013-06-18 23:53:00,
2013-06-18 19:58:00,63.6,52.0,29.92,ENE,59,0.0,0.0,66,0.00,,,0.08,37.00,VWS V14.00,2013-06-18 23:58:00,
2013-06-18 20:03:00,63.1,52.0,29.92,ENE,59,0.0,0.0,67,0.00,,,0.08,21.00,VWS V14.00,2013-06-19 00:03:00,
2013-06-18 20:08:00,62.5,51.4,29.92,ENE,59,0.0,1.0,67,0.00,,,0.08,19.00,VWS V14.00,2013-06-19 00:08:00,
2013-06-18 20:13:00,61.9,51.2,29.91,ENE,59,0.0,2.0,68,0.00,,,0.08,18.00,VWS V14.00,2013-06-19 00:13:00,
2013-06-18 20:18:00,61.2,50.6,29.91,ENE,59,0.0,2.0,68,0.00,,,0.08,14.00,VWS V14.00,2013-06-19 00:18:00,
2013-06-18 20:23:00,60.5,49.9,29.91,ENE,59,0.0,1.0,68,0.00,,,0.08,11.00,VWS V14.00,2013-06-19 00:23:00,
2013-06-18 20:28:00,59.9,49.7,29.91,ENE,59,0.0,1.0,69,0.00,,,0.08,9.00,VWS V14.00,2013-06-19 00:28:00,
2013-06-18 20:33:00,59.3,49.5,29.91,ENE,59,0.0,1.0,70,0.00,,,0.08,7.00,VWS V14.00,2013-06-19 00:33:00,
2013-06-18 20:38:00,58.7,49.3,29.91,ENE,59,0.0,3.0,71,0.00,,,0.08,5.00,VWS V14.00,2013-06-19 00:38:00,
2013-06-18 20:43:00,58.2,49.2,29.91,ENE,59,0.0,0.0,72,0.00,,,0.08,0.00,VWS V14.00,2013-06-19 00:43:00,
2013-06-18 20:48:00,57.7,49.1,29.91,ENE,59,2.0,3.0,73,0.00,,,0.08,0.00,VWS V14.00,2013-06-19 00:48:00,
2013-06-18 20:53:00,57.1,49.3,29.92,ENE,59,1.0,1.0,75,0.00,,,0.08,0.00,VWS V14.00,2013-06-19 00:53:00,
2013-06-18 20:58:00,56.4,49.3,29.92,ENE,58,0.0,2.0,77,0.00,,,0.08,0.00,VWS V14.00,2013-06-19 00:58:00,
2013-06-18 21:03:00,55.8,49.0,29.92,ENE,58,0.0,2.0,78,0.00,,,0.08,0.00,VWS V14.00,2013-06-19 01:03:00,
2013-06-18 21:08:00,55.3,48.9,29.92,ENE,58,0.0,2.0,79,0.00,,,0.08,0.00,VWS V14.00,2013-06-19 01:08:00,
2013-06-18 21:13:00,54.7,48.7,29.92,ENE,58,0.0,1.0,80,0.00,,,0.08,0.00,VWS V14.00,2013-06-19 01:13:00,
2013-06-18 21:18:00,54.2,48.2,29.92,ENE,58,0.0,0.0,80,0.00,,,0.08,0.00,VWS V14.00,2013-06-19 01:18:00,
2013-06-18 21:23:00,53.7,48.0,29.92,NE,54,4.0,4.0,81,0.00,,,0.08,0.00,VWS V14.00,2013-06-19 01:23:00,
2013-06-18 21:28:00,53.2,47.9,29.92,North,9,1.0,3.0,82,0.00,,,0.08,0.00,VWS V14.00,2013-06-19 01:28:00,
2013-06-18 21:33:00,52.9,47.6,29.92,North,5,3.0,3.0,82,0.00,,,0.08,0.00,VWS V14.00,2013-06-19 01:33:00,
2013-06-18 21:38:00,52.6,47.6,29.92,North,5,1.0,4.0,83,0.00,,,0.08,0.00,VWS V14.00,2013-06-19 01:38:00,
2013-06-18 21:43:00,52.4,47.4,29.92,North,5,2.0,4.0,83,0.00,,,0.08,0.00,VWS V14.00,2013-06-19 01:43:00,
2013-06-18 21:48:00,52.3,47.3,29.92,North,5,0.0,3.0,83,0.00,,,0.08,0.00,VWS V14.00,2013-06-19 01:48:00,
2013-06-18 21:53:00,52.2,47.2,29.92,North,5,1.0,4.0,83,0.00,,,0.08,0.00,VWS V14.00,2013-06-19 01:53:00,
2013-06-18 21:58:00,52.0,47.0,29.93,North,5,2.0,3.0,83,0.00,,,0.08,0.00,VWS V14.00,2013-06-19 01:58:00,
2013-06-18 22:03:00,51.9,46.9,29.93,North,5,0.0,4.0,83,0.00,,,0.08,0.00,VWS V14.00,2013-06-19 02:03:00,
2013-06-18 22:08:00,51.8,46.8,29.93,North,5,2.0,3.0,83,0.00,,,0.08,0.00,VWS V14.00,2013-06-19 02:08:00,
2013-06-18 22:13:00,51.7,47.0,29.93,North,355,4.0,4.0,84,0.00,,,0.08,0.00,VWS V14.00,2013-06-19 02:13:00,
2013-06-18 22:18:00,51.5,46.8,29.93,NNW,342,2.0,4.0,84,0.00,,,0.08,0.00,VWS V14.00,2013-06-19 02:18:00,
2013-06-18 22:23:00,51.5,46.8,29.93,NNW,340,3.0,3.0,84,0.00,,,0.08,0.00,VWS V14.00,2013-06-19 02:23:00,
2013-06-18 22:28:00,51.5,46.8,29.93,NNW,339,3.0,4.0,84,0.00,,,0.08,0.00,VWS V14.00,2013-06-19 02:28:00,
2013-06-18 22:33:00,51.5,46.8,29.93,NNW,339,4.0,4.0,84,0.00,,,0.08,0.00,VWS V14.00,2013-06-19 02:33:00,
2013-06-18 22:38:00,51.5,46.8,29.93,NNW,340,2.0,4.0,84,0.00,,,0.08,0.00,VWS V14.00,2013-06-19 02:38:00,
2013-06-18 22:43:00,51.6,46.9,29.93,NNW,340,0.0,3.0,84,0.00,,,0.08,0.00,VWS V14.00,2013-06-19 02:43:00,
2013-06-18 22:48:00,51.6,46.6,29.93,NNW,340,0.0,3.0,83,0.00,,,0.08,0.00,VWS V14.00,2013-06-19 02:48:00,
2013-06-18 22:53:00,51.7,46.7,29.93,NNW,340,0.0,3.0,83,0.00,,,0.08,0.00,VWS V14.00,2013-06-19 02:53:00,
2013-06-18 22:58:00,51.6,46.6,29.93,NNW,340,2.0,3.0,83,0.00,,,0.08,0.00,VWS V14.00,2013-06-19 02:58:00,
2013-06-18 23:03:00,51.5,46.5,29.93,NNW,340,2.0,3.0,83,0.00,,,0.08,0.00,VWS V14.00,2013-06-19 03:03:00,
2013-06-18 23:08:00,51.4,46.4,29.93,NNW,340,0.0,4.0,83,0.00,,,0.08,0.00,VWS V14.00,2013-06-19 03:08:00,
2013-06-18 23:13:00,51.2,46.2,29.93,NNW,340,0.0,3.0,83,0.00,,,0.08,0.00,VWS V14.00,2013-06-19 03:13:00,
2013-06-18 23:18:00,51.0,46.3,29.93,NNW,340,0.0,3.0,84,0.00,,,0.08,0.00,VWS V14.00,2013-06-19 03:18:00,
2013-06-18 23:23:00,50.8,46.2,29.93,NNW,340,0.0,3.0,84,0.00,,,0.08,0.00,VWS V14.00,2013-06-19 03:23:00,
2013-06-18 23:28:00,50.6,46.0,29.93,NNW,340,0.0,3.0,84,0.00,,,0.08,0.00,VWS V14.00,2013-06-19 03:28:00,
2013-06-18 23:33:00,50.5,45.8,29.94,NNW,340,0.0,0.0,84,0.00,,,0.08,0.00,VWS V14.00,2013-06-19 03:33:00,
2013-06-18 23:38:00,50.3,46.0,29.94,NNW,340,0.0,2.0,85,0.00,,,0.08,0.00,VWS V14.00,2013-06-19 03:38:00,
2013-06-18 23:43:00,50.2,45.9,29.94,NNW,340,0.0,2.0,85,0.00,,,0.08,0.00,VWS V14.00,2013-06-19 03:43:00,
2013-06-18 23:48:00,50.1,45.8,29.94,NNW,340,0.0,3.0,85,0.00,,,0.08,0.00,VWS V14.00,2013-06-19 03:48:00,
2013-06-18 23:53:00,50.0,46.0,29.95,NNW,340,0.0,0.0,86,0.00,,,0.08,0.00,VWS V14.00,2013-06-19 03:53:00,
2013-06-18 23:58:00,50.0,46.9,29.95,NNW,340,0.0,1.0,89,0.00,,,0.08,0.00,VWS V14.00,2013-06-19 03:58:00,